Вернуться в каталог

BREEZE-KM DEB

АктивенPO
NORAD 41719·DEBRIS·🇷🇺 Russia

Запущен Mar 31, 2015 с Plesetsk Cosmodrome

Loading…

Ближайшие Пролёты (ближайшие 24 часа)

TLE

СвежийSource: Space-Track

Эпоха: Sep 14, 2026, 05:11 UTC

1 41719U 15020G   26257.21622444 -.00000003  00000-0 -52474-4 0  9998
2 41719  82.4951 174.4086 0220797 286.8695  70.8298 12.75195190523806

Отслеживайте BREEZE-KM DEB в реальном времени с AllMySat

Download on the App Store